HAIYANG-2B (43655 NORAD) Tracking and Keplerian Element Data

This shows tracking and keplerian element data for the satellite.

Feedback or suggestion? Click here.




ElementValue
Catalog43655
NameHAIYANG-2B
Epoch Orbit31627
Epoch Day35.1843353
Epoch Year2025
RAAN46.3095
Inclination99.3367
Eccentricity0.0001664
Argument of Perigee131.4054
Mean Anonmoly228.7241
Mean Motion13.7930619
Decay Rate2E-07
L11 43655U 18081A 25035.18433530 .00000020 00000+0 62130-4 0 9990
L22 43655 99.3367 46.3095 0001664 131.4054 228.7241 13.79306190316278



Live tracking and technical data element details for HAIYANG-2B (NORAD 43655). HAIYANG-2B can be tracked NOW for your location showing map with azimuth and elevation plus other details from your city location.







IsCatalogInMostPopularTable: catalog: 43655, numindb: 354
Update: records affected: 1



GetName: 43655 HAIYANG-2B

Hit Count: updated at: Thu, 15 May 2025 20:02:52 GMT